Tracking 23446 objects as of 20-Jun-2021
HD Live streaming from Space Station
objects crossing your sky now

SCOUT X-4 R/B

Track SCOUT X-4 R/B now!
10-day predictions


NORAD ID: 1739
Int'l Code: 1965-093B
Perigee: 667.1 km
Apogee: 788.2 km
Inclination: 59.7 °
Period: 99.2 minutes
Semi major axis: 7098 km
RCS: 0.5409 m2 (medium)
Launch date: November 19, 1965
Source: United States (US)
Launch site: WALLOPS ISLAND (WLPIS)

Note: This is a ROCKET BODY
aabbcc
Your satellite tracking list
Your tracking list is empty




NASA's NSSDC Master Catalog

Two Line Element Set (TLE):
1 01739U 65093B   21170.91364509 -.00000070  00000-0  21991-4 0  9995
2 01739  59.7059  51.1983 0085283   5.9385 354.2648 14.51577515905333
Source of the keplerian elements: AFSPC